Location: Pebble Beach Sunset Acres
(33.0837°N, 96.4508°W)
Time: 08:02:08
(UTC+00:00)

Okean 1 - Pass Details

Date: 04 July 2022
Orbit: 532 x 553 km, 82.5° (Epoch: 15 August)

Event Time Altitude Azimuth Distance (km) Brightness Sun altitude
Rises 10:28:12 0° 335° (NNW) 2,684 7.0 -10.4°
Reaches altitude 10° 10:30:46 10° 319° (NW) 1,787 5.9 -9.9°
Maximum altitude 10:33:40 20° 271° (W) 1,267 4.7 -9.4°
Enters shadow 10:36:10 12° 227° (SW) 1,666 5.1 -9.0°
